This demonstration page uses our WeatherBlox Daily Observations layout. Learn more.

Left ArrowRight Arrow

41.86663, -103.66717

Hourly Observations for January 25, 2021

Temp ( °F °C ) Dew Point ( °F °C ) Humidity (%) Winds ( mph kmh ) Pressure ( in mb ) Visibility ( mi km ) Precip ( " mm )
12:53 am 00:53 Clear 19 -7.2 16 -8.9 88 88 ENE 7 11 29.74 1007 10 16 0.00 0.00
1:51 am 01:51 Partly Cloudy 19 -7 18 -8 93 93 ESE 13 20 29.90 1013 10 16 0.00 0.00
1:53 am 01:53 Partly Cloudy 21 -6.1 17 -8.3 85 85 ESE 14 22 29.76 1008 10 16 0.00 0.00
2:03 am 02:03 Mostly Cloudy 23 -5 19 -7.2 85 85 SE 15 24 29.88 1012 10 16 0.00 0.00
2:53 am 02:53 Cloudy 25 -3.9 21 -6.1 85 85 ESE 9 15 29.75 1008 9 14 0.00 0.00
3:53 am 03:53 Cloudy 25 -3.9 21 -6.1 85 85 E 3 6 29.74 1007 8 13 0.00 0.00
4:05 am 04:05 Cloudy 25 -3.9 21 -6.1 85 85 ESE 5 7 29.84 1011 8 13 0.00 0.00
4:17 am 04:17 Cloudy 24 -4.4 21 -6.1 88 88 ESE 6 9 29.86 1011 8 13 0.00 0.00
4:53 am 04:53 Cloudy 22 -5.6 18 -7.8 85 85 WNW 9 15 29.79 1009 9 14 0.00 0.00
5:01 am 05:01 Cloudy 21 -6.1 16 -8.9 81 81 WNW 7 11 29.90 1013 9 14 0.00 0.00
5:53 am 05:53 Cloudy 19 -7.2 15 -9.4 84 84 WNW 9 15 29.81 1010 9 14 0.00 0.00
6:53 am 06:53 Cloudy 20 -6.7 16 -8.9 85 85 WNW 8 13 29.83 1010 7 11 0.00 0.00
7:53 am 07:53 Cloudy 21 -6.1 17 -8.3 85 85 WNW 9 15 29.83 1010 8 13 0.00 0.00
8:53 am 08:53 Cloudy with Mist and Fog 22 -5.6 18 -7.8 85 85 N 8 13 29.86 1011 6 10 0.00 0.00
9:53 am 09:53 Cloudy 22 -5.6 19 -7.2 89 89 NE 7 11 29.88 1012 7 11 0.00 0.00
10:53 am 10:53 Cloudy with Mist and Fog 23 -5 19 -7.2 85 85 NNW 7 11 29.88 1012 4 6 0.00 0.00
11:53 am 11:53 Cloudy 24 -4.4 20 -6.7 84 84 NNW 7 11 29.85 1011 8 13 0.00 0.00
12:53 pm 12:53 Cloudy 25 -3.9 20 -6.7 81 81 N 10 17 29.84 1011 9 14 0.00 0.00
1:53 pm 13:53 Cloudy 25 -3.9 20 -6.7 81 81 N 6 9 29.84 1011 9 14 0.00 0.00
2:53 pm 14:53 Cloudy 25 -3.9 19 -7.2 78 78 N 10 17 29.85 1011 9 14 0.00 0.00
3:21 pm 15:21 Cloudy 24 -4.4 19 -7.2 81 81 N 12 19 29.94 1014 10 16 0.00 0.00
3:32 pm 15:32 Cloudy 24 -4.4 18 -7.8 77 77 N 12 19 29.94 1014 10 16 0.00 0.00
3:53 pm 15:53 Cloudy 24 -4.4 18 -7.8 77 77 NNE 9 15 29.88 1012 10 16 0.00 0.00
4:53 pm 16:53 Cloudy 23 -5 17 -8.3 78 78 N 6 9 29.91 1013 10 16 0.00 0.00
5:53 pm 17:53 Cloudy 22 -5.6 16 -8.9 78 78 NE 7 11 29.96 1014 9 14 0.00 0.00
6:53 pm 18:53 Cloudy 22 -5.6 16 -8.9 78 78 ENE 6 9 29.97 1015 8 13 0.00 0.00
7:53 pm 19:53 Cloudy with Light Snow 22 -5.6 16 -8.9 78 78 NE 7 11 29.96 1015 8 13 0.00 0.00
9:35 pm 21:35 Cloudy with Light Snow 22 -5.6 16 -8.9 78 78 N 6 9 30.04 1017 5 8 0.00 0.00
9:53 pm 21:53 Cloudy with Light Snow 21 -6.1 15 -9.4 78 78 N 7 11 29.96 1015 6 10 0.00 0.00
10:24 pm 22:24 Cloudy with Light Snow 21 -6.1 15 -9.4 78 78 N 7 11 30.06 1018 5 8 0.00 0.00
10:32 pm 22:32 Cloudy with Light Snow 21 -6.1 15 -9.4 78 78 N 7 11 30.06 1018 5 8 0.00 0.00
10:53 pm 22:53 Cloudy with Light Snow 21 -6.1 15 -9.4 78 78 N 6 9 29.97 1015 3 5 0.00 0.00
11:45 pm 23:45 Cloudy with Light Snow 20 -6.7 15 -9.4 81 81 N 6 9 30.08 1019 4 6 0.00 0.00
11:53 pm 23:53 Cloudy with Light Snow 20 -6.7 15 -9.4 81 81 N 6 9 29.98 1015 5 8 0.00 0.00

Powered by AerisWeather